Flag for United Arab Emirates Weather past 2 weeks in Sharjah, Sharjah, United Arab Emirates

Now
102 °F

Clear.


Feels Like: 108 °F
Forecast: 91 / 100 °F
Wind: 9 mph from Southwest

Location: Sharjah International Airport

Current Time: Aug 20, 2014 at 11:24:00 AM

Latest Report: Aug 20, 2014 at 11:00 AM


Visibility: 5 mi

Pressure: 29.74 "Hg

Humidity: 33%

Dew point: 68 °F

Location of SharjahLocation

Historic Weather in Sharjah — Graph

°F

Sharjah temperature yesterday

Maximum temperature yesterday: 104 °F (at 1:00 PM)
Minimum temperature yesterday: 90 °F (at 4:00 AM)
Average temperature yesterday: 96 °F

Past Weeks' High & Low Weather Summary

 TemperatureHumidityPressure
High117 °F (Aug 16, 1:00 PM)84% (Aug 7, 6:00 AM)29.77 "Hg (Aug 7, 6:00 AM)
Low86 °F (Aug 9, 6:00 AM)10% (Aug 16, 1:00 PM)29.36 "Hg (Aug 5, 2:00 PM)
Average98 °F51%29.50 "Hg
* Reported Aug 5 10:00 AM — Aug 20 10:00 AM, Sharjah, Weather by CustomWeather, © 2014

Note: Actual official high and low records may vary slightly from our data, if they occured in-between our weather recording intervals... More about our weather records

Advertising

Sharjah weather history for previous 24 hours

 ConditionsComfort  
Time TempWeatherWind HumidityBarometerVisibility
10:00 AM
Aug 20
97 °FPassing clouds.9 mph42%29.74 "HgN/A
9:00 AM95 °FSunny.9 mph44%29.77 "Hg10 mi
8:00 AM93 °FPassing clouds.7 mph47%29.77 "HgN/A
7:00 AM91 °FSunny.6 mph44%29.74 "Hg10 mi
6:00 AM90 °FSunny.6 mph43%29.71 "Hg10 mi
5:00 AM91 °FClear.6 mph41%29.68 "Hg10 mi
4:00 AM91 °FClear.5 mph44%29.68 "Hg10 mi
3:00 AM91 °FClear.5 mph46%29.68 "Hg10 mi
2:00 AM91 °FClear.No wind46%29.68 "Hg10 mi
1:00 AM93 °FPassing clouds.3 mph44%29.71 "HgN/A
12:00 AM95 °FClear.3 mph44%29.71 "Hg10 mi
11:00 PM
Aug 19
93 °FClear.5 mph47%29.71 "Hg10 mi
10:00 PM95 °FClear.3 mph41%29.71 "Hg10 mi
9:00 PM97 °FClear.2 mph39%29.71 "Hg10 mi
8:00 PM97 °FClear.3 mph37%29.71 "Hg10 mi
7:00 PM99 °FClear.6 mph37%29.68 "Hg5 mi
6:00 PM100 °FClear.8 mph35%29.68 "Hg5 mi
5:00 PM102 °FClear.10 mph37%29.68 "Hg4 mi
4:00 PM102 °FClear.13 mph37%29.68 "Hg5 mi
3:00 PM104 °FClear.15 mph33%29.68 "Hg5 mi
2:00 PM104 °FClear.14 mph35%29.71 "Hg5 mi
1:00 PM104 °FClear.12 mph35%29.74 "Hg5 mi
12:00 PM102 °FClear.3 mph35%29.74 "Hg5 mi
11:00 AM102 °FPassing clouds.6 mph40%29.77 "HgN/A
Weather by CustomWeather, © 2014

See weather overviewHow to use our weather pages